TIME,DELAY(SENSOR),PRES,OXYGEN,RAWTEMP,T(OPTODE),TCPHASE,FLUOR,BETA(BETA700),BETA(BETA412),BETA(BETA440),CDOM,C(CSC),ED(ED412.40),ED(ED444.00),ED(ED489.70),ED(ED554.30),LU(LU411.80),LU(LU443.40),LU(LU489.60),LU(LU554.10),COMP,TILTX,TILTY,CHECK
1360727107,5810,884.2500000000000000,46.0373191833496100,660.8703002929688000,4.5993161201477050,54.1137619018554700,52,100,93,80,79,14946,2147757705,2147422016,2148009956,2147876096,2147639753,2147056448,2148260507,2147195254,1159,4,14,60048
1360730704,5807,969.1900024414062000,51.5673904418945300,668.5565185546875000,4.3458709716796875,53.4373283386230500,53,99,85,78,80,14949,2147755053,2147424713,2148010386,2147875629,2147640576,2147060809,2148262491,2147196690,3271,4,14,40200
1360734304,5808,982.2000122070312000,50.7729988098144500,670.4658813476562000,4.2828059196472170,53.5730018615722660,53,98,84,78,81,14949,2147759442,2147426121,2148008100,2147877888,2147643373,2147053641,2148255634,2147199296,3332,4,13,22733
1360737904,5805,985.7600097656250000,51.4903793334960940,669.3414916992188000,4.3199481964111330,53.4559516906738300,53,98,85,79,80,14949,2147760822,2147424585,2148006573,2147871817,2147639899,2147058139,2148260864,2147195949,263,4,13,32121
1360741504,5807,996.3300170898438000,49.9165115356445300,670.5219726562500000,4.2809519767761230,53.6902503967285160,53,98,88,78,81,14943,2147757202,2147421284,2148009554,2147877257,2147641389,2147058450,2148264182,2147196123,32,4,13,25978
1360745104,5812,996.7700195312500000,51.4239807128906250,669.2166748046875000,4.3240699768066410,53.4636802673339840,53,98,88,79,79,14945,2147757705,2147422701,2148007021,2147874249,2147636662,2147052946,2148262939,2147200667,288,4,13,53282
1360748704,5808,1002.0999755859375000,48.6799201965332000,670.4135131835938000,4.2845358848571780,53.8583793640136700,52,97,90,78,82,14889,2147758848,2147422765,2148006610,2147873956,2147642816,2147056237,2148256667,2147196452,108,4,13,36338
1360752304,5807,1001.4199829101562000,48.1486396789550800,670.8471069335938000,4.2702097892761230,53.9360084533691400,52,99,85,80,79,14946,2147756964,2147424685,2148008722,2147871579,2147639698,2147058386,2148261458,2147194166,3410,4,13,41162
1360755904,5812,998.5399780273438000,48.0349502563476560,671.1749267578125000,4.2593779563903810,53.9545898437500000,52,100,85,79,81,14943,2147758043,2147422985,2148007296,2147873947,2147643309,2147062966,2148259913,2147198372,303,4,13,5854
1360759504,5806,994.7600097656250000,48.9665412902832000,672.6146850585938000,4.2117857933044430,53.8498191833496100,53,98,86,78,80,14943,2147757312,2147424320,2148010678,2147877083,2147642377,2147055296,2148259200,2147195593,3461,4,14,38697
1360763104,5810,983.4899902343750000,49.5146217346191400,674.1851806640625000,4.1598429679870605,53.7928886413574200,53,101,90,79,81,14943,2147758454,2147422326,2148009545,2147873673,2147640960,2147053558,2148261284,2147198482,3207,4,13,44769
1360766704,5808,985.6500244140625000,49.6846084594726560,674.7639770507812000,4.1406960487365720,53.7734184265136700,52,102,85,80,82,14942,2147756187,2147421586,2148009481,2147876150,2147640557,2147055058,2148264512,2147193353,3245,4,13,58716
1360770304,5809,989.9600219726562000,49.7184410095214840,674.7277832031250000,4.1418948173522950,53.7705497741699200,53,99,87,78,81,14943,2147758957,2147422573,2148010285,2147874075,2147641243,2147058093,2148260708,2147195410,3175,4,13,12244
1360773904,5811,999.1900024414062000,49.5738410949707000,674.0480957031250000,4.1643810272216800,53.7798385620117200,52,98,89,79,80,14945,2147757650,2147426349,2148007844,2147874761,2147642971,2147057106,2148260681,2147197211,3519,4,13,51532
1360777504,5812,999.2800292968750000,48.2601013183593750,671.8613891601562000,4.2366890907287600,53.9326515197753900,52,99,82,79,81,14943,2147758180,2147423734,2148010249,2147875053,2147641618,2147052114,2148261202,2147192758,71,4,13,13566
1360781104,5813,1005.1900024414062000,48.9942588806152340,673.5203857421875000,4.1818351745605470,53.8566894531250000,53,97,88,80,80,14941,2147757330,2147421714,2148009344,2147873572,2147642084,2147058477,2148263881,2147198838,92,4,13,39022
1360784704,5810,1008.4600219726562000,48.3069801330566400,672.0372924804688000,4.2308750152587890,53.9328613281250000,52,99,87,78,81,14943,2147757376,2147426176,2148008877,2147876278,2147641837,2147060562,2148261220,2147197193,514,4,13,57852
1360788304,5804,997.1599731445312000,48.2957000732421900,673.0809936523438000,4.1963667869567870,53.9451293945312500,52,100,86,80,81,14944,2147757869,2147422774,2148010102,2147876169,2147645412,2147057371,2148257728,2147193206,443,4,13,48294
1360791904,5807,1007.5700073242188000,48.2522201538085940,672.3950195312500000,4.2190480232238770,53.9458198547363300,53,97,89,78,80,14944,2147759478,2147424173,2148009572,2147876480,2147640768,2147051657,2148256219,2147198784,499,4,13,30894
1360795504,5807,1004.6400146484375000,49.1278305053710940,673.5620117187500000,4.1804580688476560,53.8379402160644500,52,99,86,79,81,14940,2147759195,2147424896,2148008859,2147875291,2147642715,2147057453,2148261312,2147196909,152,4,13,49885
1360799104,5811,1008.4299926757812000,48.9932403564453100,673.2401123046875000,4.1911048889160160,53.8495292663574200,52,100,82,79,80,14940,2147758116,2147425124,2148010358,2147876617,2147640777,2147060105,2148257728,2147200612,207,4,13,6526
1360802704,5806,997.0999755859375000,48.6722412109375000,673.4965209960938000,4.1826272010803220,53.8992614746093750,52,99,86,81,80,14943,2147759058,2147421010,2148005440,2147876918,2147641088,2147059977,2148265764,2147194386,3282,4,13,32307
1360806304,5812,996.0100097656250000,48.9642410278320300,673.7166137695312000,4.1753458976745605,53.8616905212402340,52,98,85,78,81,14941,2147760219,2147422921,2148011885,2147875940,2147644781,2147059264,2148262025,2147194395,96,4,13,64961
1360809904,5811,1006.9799804687500000,48.9956283569335940,673.9614868164062000,4.1672458648681640,53.8573417663574200,53,99,89,78,80,14941,2147759259,2147425197,2148005622,2147871890,2147639872,2147060132,2148256475,2147195849,251,4,13,60936
1360813504,5808,1008.1400146484375000,49.0042610168457000,673.8447265625000000,4.1711101531982420,53.8564491271972660,52,98,86,80,81,14941,2147756964,2147419904,2148010742,2147876242,2147645101,2147058148,2148259949,2147197686,144,4,14,22402
1360817104,5811,1006.9299926757812000,48.5551795959472660,673.6306762695312000,4.1781859397888180,53.9147300720214840,54,98,87,79,82,14941,2147761764,2147422162,2148011739,2147875776,2147640493,2147052598,2148260379,2147194203,331,4,13,2057
1360820704,5811,1005.8099975585938000,48.5341186523437500,673.8328857421875000,4.1714968681335450,53.9244384765625000,53,100,85,78,80,14940,2147758674,2147425069,2148006939,2147872274,2147641188,2147055222,2148264292,2147198134,72,4,13,58984
1360824304,5806,1006.0700073242188000,48.7654495239257800,674.0144042968750000,4.1654949188232420,53.8954696655273440,53,102,85,79,82,14941,2147760704,2147424758,2148008466,2147871222,2147641234,2147055652,2148260169,2147190774,230,4,13,63057
1360827904,5806,1003.9000244140625000,48.4524116516113300,674.0590209960938000,4.1640191078186035,53.9337615966796900,53,98,85,79,81,14941,2147760429,2147423277,2148009600,2147875364,2147640694,2147061760,2148264192,2147196672,3486,4,13,25171
1360831504,5809,1006.8699951171875000,48.6696014404296900,672.8646850585938000,4.2035198211669920,53.8925704956054700,53,105,88,79,82,14939,2147760950,2147425718,2148006966,2147877769,2147642971,2147059922,2148264329,2147196050,56,4,13,5258
1360835104,5809,1008.0599975585938000,48.4751014709472660,672.8543090820312000,4.2038631439208980,53.9147911071777340,52,97,86,78,80,14937,2147761810,2147421696,2148012059,2147875739,2147641371,2147056868,2148263808,2147199469,232,4,13,18830
1360838704,5805,1010.3800048828125000,48.4162101745605500,672.3289794921875000,4.2212309837341310,53.9219512939453100,53,106,85,80,81,14936,2147760201,2147425627,2148009910,2147876699,2147641481,2147058532,2148261942,2147196580,180,4,13,32616
1360842304,5807,1011.0100097656250000,47.7340316772460940,672.9528198242188000,4.2006049156188965,54.0193481445312500,52,99,88,78,80,14937,2147761984,2147428306,2148012836,2147878528,2147641865,2147059364,2148263058,2147198217,184,4,13,14854
1360845904,5807,1004.5000000000000000,47.4775199890136700,672.5839843750000000,4.2127990722656250,54.0521202087402340,52,99,90,79,80,14938,2147760914,2147422134,2148013110,2147876452,2147639990,2147062390,2148263680,2147194084,306,4,13,50369
1360849504,5808,999.5700073242188000,48.5839118957519500,674.5791015625000000,4.1468138694763180,53.9238586425781250,52,100,85,78,79,14932,2147761124,2147423085,2148011035,2147875227,2147643638,2147058249,2148262857,2147195108,2542,4,13,53121
1360853104,5808,995.7500000000000000,49.2532691955566400,675.6342163085938000,4.1118998527526855,53.8429603576660160,52,98,84,78,80,14933,2147761819,2147423350,2148009197,2147869494,2147639945,2147058112,2148261650,2147193590,113,4,13,50067
1360856704,5808,1001.1799926757812000,49.4104118347168000,674.7335815429688000,4.1417031288146970,53.8091697692871100,52,98,88,80,81,14932,2147759241,2147424000,2148011958,2147877074,2147641892,2147055981,2148260562,2147198089,95,4,13,46777
1360860304,5809,1004.1300048828125000,49.6414794921875000,675.3303222656250000,4.1219577789306640,53.7872009277343750,52,98,85,79,80,14930,2147758235,2147425024,2148009536,2147877869,2147642267,2147057078,2148260443,2147191643,2555,4,13,21596
1360863904,5811,1012.6900024414062000,49.1213493347168000,673.8577880859375000,4.1706728935241700,53.8391914367675800,53,99,88,79,81,14927,2147759113,2147422528,2148009216,2147875986,2147642093,2147054445,2148263332,2147196525,2714,4,13,9876
1360867504,5809,1010.3900146484375000,48.3055191040039060,674.0328979492188000,4.1648850440979000,53.9566001892089840,52,98,91,78,81,14928,2147757952,2147424027,2148013129,2147875785,2147641554,2147057609,2148260909,2147196882,781,4,14,25785
1360871104,5809,1006.1799926757812000,48.2913703918457000,673.6088256835938000,4.1789112091064450,53.9569892883300800,52,98,86,79,80,14896,2147757750,2147425033,2148010322,2147873398,2147640155,2147061513,2148256118,2147195739,117,4,13,33686
1360872056,5807,1006.9000244140625000,48.3178787231445300,674.0330200195312000,4.1648831367492680,53.9506111145019500,53,97,88,80,80,14937,2147757504,2147423881,2148010432,2147874432,2147639844,2147054674,2148261805,2147198043,1167,4,13,59831
